Humidity-temperature Sensor

Selected Measurement Type: Relative Humidity

 
Relative Humidity [%]     6 entries per hour
Showing data from 6/25/2015 (07:00:00 Z) to 6/24/2015 (00:01:00 Z)
Previous Next [ Day | 3-Days | 7-Days ]
First Last
Prev [ Day | 3-Days | 7-Days ] Next
First Last

Start Time:     :
End Time:     :     
Time (in GMT) :00 :50 :40 :30 :20 :10
Previous Next [ Day | 3-Days | 7-Days ]
First Last
Prev [ Day | 3-Days | 7-Days ] Next
First Last


123 => good data
MM => data is determined as missing
-- => data not received/configured
Back to Top Back to Top
6/25/2015 07:00 to 6:10 84.93 85.45 86.00 85.24 85.05 84.91
6/25/2015 06:00 to 5:10 85.54 85.47 85.62 85.85 85.60 85.31
6/25/2015 05:00 to 4:10 85.93 85.70 85.72 85.18 85.49 84.91
6/25/2015 04:00 to 3:10 86.08 85.31 85.26 85.41 85.01 86.16
6/25/2015 03:00 to 2:10 84.87 84.49 84.59 85.08 86.18 86.39
6/25/2015 02:00 to 1:10 86.58 85.64 85.97 86.39 85.79 85.83
6/25/2015 01:00 to 0:10 85.31 85.08 85.22 84.66 84.70 84.24
6/25/2015 00:00 to 23:10 84.03 83.80 84.26 84.80 85.35 85.08
6/24/2015 23:00 to 22:10 84.68 84.95 84.97 85.20 85.03 85.37
6/24/2015 22:00 to 21:10 84.99 84.20 85.64 87.10 87.21 86.54
6/24/2015 21:00 to 20:10 85.62 85.77 84.51 84.72 85.41 84.80
6/24/2015 20:00 to 19:10 83.95 84.49 84.26 84.07 83.65 84.03
6/24/2015 19:00 to 18:10 83.80 83.30 83.51 83.61 83.53 83.97
6/24/2015 18:00 to 17:10 83.51 83.26 85.60 87.02 86.69 87.00
6/24/2015 17:00 to 16:10 86.62 86.20 85.62 85.39 84.68 84.72
6/24/2015 16:00 to 15:10 85.16 84.62 84.47 84.26 84.39 84.68
6/24/2015 15:00 to 14:10 84.05 83.15 83.38 83.59 83.90 85.10
6/24/2015 14:00 to 13:10 84.55 84.97 84.89 84.20 85.24 84.47
6/24/2015 13:00 to 12:10 84.39 84.36 84.13 84.85 85.95 83.47
6/24/2015 12:00 to 11:10 83.24 83.90 86.41 87.04 86.85 85.60
6/24/2015 11:00 to 10:10 84.97 84.39 84.47 84.30 84.13 84.16
6/24/2015 10:00 to 9:10 83.55 84.36 85.10 84.11 83.53 83.51
6/24/2015 09:00 to 8:10 84.39 84.53 84.43 84.68 84.20 84.07
6/24/2015 08:00 to 7:10 84.49 84.87 83.99 83.44 83.99 83.44
6/24/2015 07:00 to 6:10 84.07 84.62 84.82 84.28 84.01 83.95
6/24/2015 06:00 to 5:10 83.53 83.15 83.40 83.70 83.78 84.11
6/24/2015 05:00 to 4:10 83.34 84.03 82.82 83.63 84.43 84.05
6/24/2015 04:00 to 3:10 84.93 84.13 83.38 83.78 84.24 83.82
6/24/2015 03:00 to 2:10 83.24 83.65 83.74 82.90 83.47 83.17
6/24/2015 02:00 to 1:10 84.22 83.42 84.01 83.17 83.36 82.94
6/24/2015 01:00 to 0:10 83.15 82.86 83.51 84.80 85.37 84.80